This demonstration page uses our WeatherBlox Daily Observations layout. Learn more.

Hourly Observations for February 14, 2017

Temp ( °F °C ) Dew Point ( °F °C ) Humidity (%) Winds ( mph kmh ) Pressure ( in mb ) Visibility ( mi km ) Precip ( " mm )
12:15 am 00:15 Clear 28 -2 27 -3 93 93 Calm 30.09 1019 10 16.09344 0 0
12:35 am 00:35 Clear 28 -2 23 -5 80 80 Calm 30.09 1019 10 16.09344 0 0
12:55 am 00:55 Clear 28 -2 25 -4 86 86 W 3 6 30.09 1019 10 16.09344 0 0
1:15 am 01:15 Clear 28 -2 25 -4 86 86 W 5 7 30.09 1019 10 16.09344 0 0
1:35 am 01:35 Clear 28 -2 25 -4 86 86 WNW 3 6 30.09 1019 10 16.09344 0 0
1:55 am 01:55 Clear 28 -2 25 -4 86 86 W 3 6 30.09 1019 10 16.09344 0 0
2:15 am 02:15 Clear 27 -3 25 -4 93 93 W 3 6 30.09 1019 10 16.09344 0 0
2:35 am 02:35 Clear 27 -3 25 -4 93 93 Calm 30.09 1019 10 16.09344 0 0
2:55 am 02:55 Clear 28 -2 23 -5 80 80 Calm 30.06 1018 10 16.09344 0 0
3:15 am 03:15 Clear 25 -4 23 -5 93 93 Calm 30.06 1018 10 16.09344 0 0
3:35 am 03:35 Clear 27 -3 23 -5 86 86 W 3 6 30.06 1018 10 16.09344 0 0
3:55 am 03:55 Clear 27 -3 23 -5 86 86 W 3 6 30.06 1018 10 16.09344 0 0
4:15 am 04:15 Clear 27 -3 23 -5 86 86 W 3 6 30.06 1018 10 16.09344 0 0
4:35 am 04:35 Clear 28 -2 23 -5 80 80 W 3 6 30.06 1018 10 16.09344 0 0
4:55 am 04:55 Clear 28 -2 25 -4 86 86 WNW 5 7 30.06 1018 10 16.09344 0 0
5:15 am 05:15 Clear 28 -2 27 -3 93 93 WNW 3 6 30.06 1018 10 16.09344 0 0
5:35 am 05:35 Clear 30 -1 27 -3 86 86 Calm 30.03 1017 10 16.09344 0 0
5:55 am 05:55 Clear 32 0 27 -3 80 80 undefined N/A 30.03 1017 10 16.09344 0 0
6:15 am 06:15 Clear 30 -1 28 -2 93 93 undefined N/A 30.06 1018 10 16.09344 0 0
6:35 am 06:35 Partly Cloudy 32 0 27 -3 80 80 undefined N/A 30.06 1018 10 16.09344 0 0
6:55 am 06:55 Partly Cloudy 32 0 27 -3 80 80 undefined N/A 30.03 1017 10 16.09344 0 0
7:15 am 07:15 Sunny 32 0 28 -2 87 87 undefined N/A 30.03 1017 10 16.09344 0 0
7:35 am 07:35 Mostly Cloudy 32 0 28 -2 87 87 undefined N/A 30.06 1018 10 16.09344 0 0
7:55 am 07:55 Cloudy 32 0 28 -2 87 87 undefined N/A 30.06 1018 10 16.09344 0 0
8:15 am 08:15 Cloudy 32 0 28 -2 87 87 undefined N/A 30.03 1017 10 16.09344 0 0
8:35 am 08:35 Cloudy 32 0 28 -2 87 87 undefined N/A 30.03 1017 10 16.09344 0 0
8:55 am 08:55 Cloudy 34 1 28 -2 81 81 undefined N/A 30.03 1017 10 16.09344 0 0
9:15 am 09:15 Cloudy 34 1 28 -2 81 81 undefined N/A 30.03 1017 10 16.09344 0 0
9:35 am 09:35 Cloudy 34 1 30 -1 87 87 undefined N/A 30.03 1017 10 16.09344 0 0
9:55 am 09:55 Cloudy 36 2 30 -1 81 81 undefined N/A 30.03 1017 10 16.09344 0 0
10:15 am 10:15 Cloudy 36 2 28 -2 75 75 undefined N/A 30.03 1017 10 16.09344 0 0
10:35 am 10:35 Cloudy 37 3 30 -1 75 75 undefined N/A 30.03 1017 10 16.09344 0 0
10:55 am 10:55 Cloudy 41 5 30 -1 66 66 undefined N/A 30 1016 10 16.09344 0 0
11:15 am 11:15 Cloudy 43 6 32 0 66 66 undefined N/A 30 1016 10 16.09344 0 0
11:35 am 11:35 Cloudy 43 6 32 0 66 66 undefined N/A 30 1016 10 16.09344 0 0
11:55 am 11:55 Cloudy 43 6 30 -1 61 61 undefined N/A 29.97 1015 10 16.09344 0 0
12:15 pm 12:15 Cloudy 41 5 32 0 70 70 undefined N/A 29.97 1015 10 16.09344 0 0
12:35 pm 12:35 Cloudy 41 5 32 0 70 70 undefined N/A 29.94 1014 10 16.09344 0 0
12:55 pm 12:55 Mostly Cloudy 43 6 32 0 66 66 undefined N/A 29.94 1014 10 16.09344 0 0
1:15 pm 13:15 Partly Cloudy 43 6 32 0 66 66 undefined N/A 29.94 1014 10 16.09344 0 0
1:35 pm 13:35 Partly Cloudy 43 6 32 0 66 66 undefined N/A 29.91 1013 10 16.09344 0 0
1:55 pm 13:55 Sunny 45 7 32 0 61 61 undefined N/A 29.88 1012 10 16.09344 0 0
2:15 pm 14:15 Sunny 45 7 32 0 61 61 undefined N/A 29.88 1012 10 16.09344 0 0
2:35 pm 14:35 Sunny 45 7 32 0 61 61 undefined N/A 29.88 1012 10 16.09344 0 0
2:55 pm 14:55 Sunny 46 8 32 0 57 57 undefined N/A 29.83 1010 10 16.09344 0 0
3:15 pm 15:15 Sunny 46 8 30 -1 53 53 undefined N/A 29.83 1010 10 16.09344 0 0
3:35 pm 15:35 Sunny 46 8 30 -1 53 53 undefined N/A 29.83 1010 10 16.09344 0 0
3:55 pm 15:55 Sunny 46 8 28 -2 50 50 undefined N/A 29.8 1009 10 16.09344 0 0
4:15 pm 16:15 Sunny 46 8 28 -2 50 50 undefined N/A 29.8 1009 10 16.09344 0 0
4:35 pm 16:35 Sunny 46 8 28 -2 50 50 undefined N/A 29.8 1009 10 16.09344 0 0
4:55 pm 16:55 Sunny 46 8 28 -2 50 50 undefined N/A 29.8 1009 10 16.09344 0 0
5:15 pm 17:15 Sunny 46 8 27 -3 46 46 undefined N/A 29.83 1010 10 16.09344 0 0
5:35 pm 17:35 Sunny 45 7 27 -3 49 49 undefined N/A 29.83 1010 10 16.09344 0 0
5:55 pm 17:55 Clear 45 7 27 -3 49 49 undefined N/A 29.83 1010 10 16.09344 0 0
6:15 pm 18:15 Clear 43 6 27 -3 53 53 undefined N/A 29.83 1010 10 16.09344 0 0
6:35 pm 18:35 Clear 43 6 27 -3 53 53 undefined N/A 29.83 1010 10 16.09344 0 0
6:55 pm 18:55 Clear 43 6 27 -3 53 53 undefined N/A 29.83 1010 10 16.09344 0 0
7:15 pm 19:15 Clear 43 6 27 -3 53 53 undefined N/A 29.83 1010 10 16.09344 0 0
7:35 pm 19:35 Clear 41 5 27 -3 57 57 undefined N/A 29.83 1010 10 16.09344 0 0
7:55 pm 19:55 Clear 41 5 27 -3 57 57 undefined N/A 29.83 1010 10 16.09344 0 0
8:15 pm 20:15 Clear 41 5 27 -3 57 57 undefined N/A 29.83 1010 10 16.09344 0 0
8:35 pm 20:35 Clear 41 5 27 -3 57 57 undefined N/A 29.8 1009 10 16.09344 0 0
8:55 pm 20:55 Clear 41 5 27 -3 57 57 undefined N/A 29.8 1009 10 16.09344 0 0
9:15 pm 21:15 Clear 39 4 27 -3 61 61 undefined N/A 29.8 1009 10 16.09344 0 0
9:35 pm 21:35 Clear 39 4 27 -3 61 61 undefined N/A 29.8 1009 10 16.09344 0 0
9:55 pm 21:55 Clear 36 2 28 -2 75 75 undefined N/A 29.77 1008 10 16.09344 0 0
10:15 pm 22:15 Clear 37 3 27 -3 65 65 undefined N/A 29.77 1008 10 16.09344 0 0
10:35 pm 22:35 Clear 37 3 28 -2 70 70 undefined N/A 29.77 1008 10 16.09344 0 0
10:55 pm 22:55 Clear 36 2 27 -3 70 70 undefined N/A 29.77 1008 10 16.09344 0 0
11:15 pm 23:15 Clear 36 2 27 -3 70 70 undefined N/A 29.74 1007 10 16.09344 0 0
11:35 pm 23:35 Clear 36 2 28 -2 75 75 undefined N/A 29.74 1007 10 16.09344 0 0
11:55 pm 23:55 Clear 36 2 27 -3 70 70 undefined N/A 29.74 1007 10 16.09344 0 0

Powered by AerisWeather